SCP
0 0 0 0 0 0 0 0 0 0 0 0 0 0 0 0 0 0 0 -0 0 0 0 0 0 0 0 0 0 0 0 0 0 0 0 0 0 0 0 0 0 0 0
0 0 0 0 0 0 0 0 0 0 0 0 0 0 0 0 0 0 0 -0 0 0 0 0 0 0 0 0 0 0 0 0 0 0 0 0 0 0 0 0 0 0 0
0 0 0 0 0 0 0 0 0 0 0 0 0 0 0 0 0 0 0 0 -0 0 0 0 0 0 0 0 0 0 0 0 0 0 0 0 0 0 0 0 0 0 0
0 0 0 0 0 0 0 0 0 0 0 0 0 0 0 0 0 0 0 0 -0 0 0 0 0 0 0 0 0 0 0 0 0 0 0 0 0 0 0 0 0 0 0
0 0 0 0 0 0 0 0 0 0 0 0 0 0 0 0 0 0 0 0 0 0 0 0 0 0 0 0 0 0 0 0 0 0 0 0 0 0 0 0 0 0 0
0 0 0 0 0 0 0 0 0 0 0 0 0 0 0 0 0 0 0 0 0 0 0 0 0 0 0 0 0 0 0 0 0 0 0 0 0 0 0 0 0 -0 -0
0 0 0 0 0 0 0 0 0 0 0 0 0 0 0 0 0 0 0 0 0 0 0 0 0 0 0 0 0 0 0 0 0 0 0 0 0 0 0 0 0 0 -0
0 0 0 0 0 0 0 0 0 0 0 0 0 0 0 0 0 0 0 0 0 0 0 0 0 0 0 0 0 0 0 0 0 0 0 0 0 0 0 0 0 0 0
0 0 0 0 0 0 0 0 0 0 0 0 0 0 0 0 0 0 0 0 0 0 0 0 0 0 0 0 0 0 0 0 0 0 0 0 0 0 0 0 0 0 0
0 0 0 0 0 0 0 0 0 0 0 0 0 0 0 0 0 0 0 0 0 0 0 0 0 0 0 0 0 0 0 0 0 0 0 0 0 0 0 0 0 0 0
0 0 0 0 0 0 0 0 0 0 0 0 0 0 0 0 0 0 0 0 0 0 0 0 0 0 0 0 0 0 0 0 0 0 0 0 0 0 0 0 0 0 0
0 0 0 0 0 0 0 0 0 0 0 0 0 0 0 0 0 0 0 0 0 0 0 0 0 0 0 0 0 0 0 0 0 0 0 0 0 0 0 0 0 0 0
0 0 0 0 0 0 0 0 0 0 0 0 0 0 0 0 0 0 0 0 0 0 0 0 0 0 0 0 0 0 0 0 0 0 0 0 0 0 0 0 0 0 0
0 0 0 0 0 0 0 0 0 0 0 0 0 0 0 0 0 0 0 0 0 0 0 0 0 0 0 0 0 0 0 0 0 0 0 0 0 0 0 0 0 0 0
0 0 0 0 0 0 0 0 0 0 0 0 0 0 0 0 0 0 0 0 0 0 0 0 0 0 0 0 0 0 0 0 0 0 0 0 0 0 0 0 0 0 0
0 0 0 0 0 0 0 0 0 0 0 0 0 0 0 0 0 0 0 0 0 0 0 0 0 0 0 0 0 0 0 0 0 -0 0 0 0 0 0 0 0 0 0
0 0 0 0 0 0 0 0 0 0 0 0 0 0 0 0 0 0 0 0 0 0 0 0 0 0 0 0 0 0 0 0 -0 -0 -0 -0 0 0 0 0 0 0 0
0 0 0 0 0 0 0 0 0 0 0 0 0 0 0 0 0 0 0 0 0 0 0 0 0 0 0 0 0 0 -0 -0 -0 -0 -0 -0 0 0 0 0 0 0 0
0 0 0 0 0 0 0 0 0 0 0 0 0 0 0 0 0 0 0 0 0 0 0 0 0 0 0 0 0 -0 -0 -0 -0 -0 -0 0 0 0 0 0 0 0 0
0 0 0 0 0 0 0 0 0 0 0 0 0 0 0 0 0 0 0 0 0 0 0 0 0 0 0 0 0 0 0 -0 -0 -0 -0 0 0 0 0 0 0 0 0
0 0 0 0 0 0 0 0 0 0 0 0 0 0 0 0 0 0 0 0 0 0 0 0 0 0 0 0 0 0 0 0 0 0 0 0 0 0 0 0 0 0 0
0 0 0 0 0 0 0 0 0 0 0 0 0 0 0 0 0 0 0 0 0 0 0 0 0 0 0 0 0 0 0 0 0 0 0 0 0 0 0 0 0 0 0
0 0 0 0 0 0 0 0 0 0 0 0 0 0 0 0 0 0 0 0 0 0 0 0 0 0 0 0 0 0 0 0 0 0 0 0 0 0 0 0 0 0 0
0 0 0 0 0 0 0 0 0 0 0 0 0 0 0 0 0 0 0 0 0 0 0 0 0 0 0 0 0 0 0 0 0 0 0 0 0 0 0 0 0 0 0
0 0 0 0 0 0 0 0 0 0 0 0 0 0 0 0 0 0 0 0 0 0 0 0 0 0 0 0 0 0 0 0 0 0 0 0 0 0 0 0 0 0 0
0 0 0 0 0 0 0 0 0 0 0 0 0 0 0 0 0 0 0 0 0 0 0 0 0 0 0 0 0 0 0 0 0 0 0 0 0 0 0 0 0 0 0
Wind_Speed
8 7 8 7 7 7 7 7 7 7 5 4 3 3 3 2 3 3 5 4 5 5 5 4 5 4 4 4 4 3 3 3 2 2 3 4 5 5 4 5 5 6 7
9 8 9 9 8 8 7 8 7 6 6 3 2 2 3 2 3 2 3 4 4 5 4 5 4 4 3 4 4 3 2 2 2 1 0 2 3 3 4 4 5 6 5
11 11 10 10 9 9 9 7 7 7 6 6 3 3 3 3 3 3 2 3 4 4 4 5 4 4 4 4 4 3 2 2 2 3 3 2 2 2 3 5 4 5 5
11 10 10 11 11 10 9 9 8 7 7 7 5 5 3 2 2 2 2 2 3 3 3 4 4 4 4 4 3 3 2 2 1 2 3 4 3 2 1 2 3 5 5
12 11 11 11 10 10 9 8 8 7 6 6 5 5 3 2 3 3 3 2 3 3 3 3 3 3 3 4 4 3 3 2 2 2 2 2 1 3 2 1 1 2 4
12 12 11 10 9 9 9 8 8 8 7 7 7 6 4 4 4 3 3 2 2 2 2 2 2 2 3 3 3 3 4 3 3 2 2 2 2 2 2 2 1 2 2
12 12 12 12 10 10 10 10 10 9 9 8 8 7 6 5 5 4 3 2 2 2 2 1 1 2 2 3 2 2 3 3 3 2 2 2 2 2 2 2 2 2 1
11 12 13 12 11 11 11 11 11 10 9 9 8 7 7 4 3 4 3 2 1 1 2 1 1 1 2 2 2 1 2 2 2 3 2 1 2 2 2 3 3 2 1
11 12 12 12 11 11 12 11 11 11 10 9 8 7 7 5 5 4 3 2 2 2 2 2 2 2 1 1 1 1 1 1 2 2 2 2 2 2 2 2 3 4 3
11 11 11 11 11 10 10 10 11 10 10 9 8 6 6 6 5 4 4 3 3 3 3 2 2 2 2 1 1 0 1 1 1 1 2 2 2 2 2 2 2 3 3
9 10 10 10 10 9 9 10 10 10 9 9 8 7 6 6 6 5 4 4 3 4 4 3 2 2 2 1 1 0 0 0 0 0 1 1 2 2 2 2 2 2 2
8 9 9 9 9 9 9 9 9 9 9 8 8 7 6 7 6 5 5 4 4 4 3 3 3 2 2 2 1 1 1 1 1 1 1 1 0 1 2 2 2 2 2
7 8 9 9 9 9 9 9 9 9 8 8 8 8 7 7 6 5 5 5 4 4 4 4 3 3 3 2 2 2 2 1 1 1 1 1 1 1 1 2 2 2 2
7 8 8 8 8 9 9 9 9 8 9 8 8 8 7 7 6 5 5 5 5 4 4 4 4 3 3 3 3 2 2 2 1 1 2 2 2 2 2 2 2 2 3
7 8 8 8 8 8 8 8 8 8 9 9 9 8 7 7 6 6 6 5 4 4 4 4 4 4 3 3 3 3 3 3 2 2 2 2 2 4 4 4 3 3 3
6 7 8 8 9 9 9 9 8 8 9 9 9 7 7 7 7 6 6 5 5 5 4 5 5 4 3 2 2 5 4 4 3 3 3 2 3 2 3 4 5 6 5
5 6 7 8 8 8 9 9 8 8 8 8 8 7 7 7 7 7 6 6 6 5 5 6 5 5 4 5 5 6 6 5 4 4 4 3 3 4 4 4 7 6 6
4 5 5 6 7 7 7 7 8 8 8 8 8 7 8 8 7 7 6 6 6 5 5 5 5 4 4 5 6 7 7 6 5 5 5 5 5 4 5 6 5 5 4
3 3 4 5 6 7 7 8 8 8 7 7 7 8 8 7 7 7 7 6 5 5 6 5 5 5 5 6 6 7 6 5 6 5 6 6 6 2 5 8 7 7 5
2 2 3 4 5 6 7 7 7 7 7 7 6 6 7 7 7 7 6 5 5 5 5 5 5 5 5 5 6 8 5 6 5 5 5 4 6 4 6 8 8 8 7
3 3 4 4 4 5 7 7 6 6 5 5 5 5 6 6 6 5 5 5 5 4 5 5 4 5 4 5 6 7 6 5 5 5 5 3 4 6 7 10 9 8 9
4 4 4 4 4 5 6 6 5 4 4 5 5 5 5 5 4 5 4 5 5 5 5 5 4 4 4 4 5 6 7 7 7 6 5 3 3 6 9 8 7 9 10
3 3 4 4 4 4 4 5 4 4 5 5 5 4 5 4 4 5 5 4 4 4 4 3 3 3 3 3 5 7 8 8 7 6 5 6 6 7 8 9 9 10 8
3 4 4 4 4 3 3 3 3 4 5 5 4 4 4 4 4 3 3 3 3 3 3 3 3 3 2 2 2 3 4 6 7 6 5 7 8 8 8 8 7 7 6
3 3 3 3 3 3 3 2 3 4 4 4 4 4 3 3 3 3 2 3 2 2 3 2 3 3 3 1 2 4 4 4 4 5 5 6 5 6 5 6 6 6 6
4 4 4 3 3 3 3 3 3 3 4 4 3 3 3 3 3 3 2 2 0 1 1 2 3 2 2 3 2 4 5 5 4 5 6 5 5 6 6 6 6 6 6
Wind_Direction
183 178 178 175 176 176 173 163 166 162 162 156 155 138 114 100 85 68 60 53 45 41 45 38 44 31 47 46 59 71 85 70 50 101 101 94 70 59 55 39 41 47 38
188 183 186 184 187 182 181 176 174 173 172 163 152 128 110 104 87 79 69 53 49 43 41 47 54 52 56 55 54 51 48 67 16 350 280 139 125 73 56 50 40 37 37
196 187 190 188 189 188 187 185 181 175 177 169 156 143 138 151 138 112 80 55 51 50 40 45 48 50 52 57 46 41 33 44 52 16 341 337 41 83 75 46 45 36 28
203 194 192 193 192 190 189 187 182 179 174 175 183 181 179 150 122 108 103 95 70 61 48 54 50 53 53 59 54 49 32 7 35 59 20 11 13 314 104 94 50 34 30
203 200 199 196 193 186 186 188 181 181 178 183 183 196 181 152 137 133 124 110 90 68 57 51 54 55 58 55 52 48 33 32 19 25 34 45 29 325 329 19 27 44 37
203 203 199 193 189 185 183 185 185 182 183 188 189 193 179 171 159 160 149 143 121 102 82 61 67 63 59 61 53 54 56 41 39 21 21 7 10 6 351 332 351 20 36
197 197 193 192 188 187 187 187 187 187 188 193 194 191 189 185 182 179 168 171 139 124 103 90 73 72 69 65 53 52 48 56 49 31 28 24 20 3 341 325 341 340 358
194 194 192 192 189 189 189 190 191 192 189 194 193 192 188 194 187 192 189 180 154 124 118 124 96 88 85 84 71 36 47 43 51 45 34 17 22 358 350 340 325 314 324
192 193 192 191 190 189 190 192 192 192 190 192 191 191 189 192 191 192 193 182 177 154 156 157 147 137 123 82 74 41 59 44 28 28 35 14 27 347 348 334 319 313 313
190 190 190 190 190 189 187 190 194 193 190 192 191 190 193 191 194 199 191 186 181 174 183 183 174 164 153 149 122 51 35 50 62 0 357 0 356 360 340 325 322 316 313
189 186 185 186 184 182 183 187 190 190 189 192 191 189 189 191 191 196 193 195 194 190 195 195 201 190 184 172 153 203 160 272 94 265 351 353 352 337 334 326 318 316 311
183 180 179 177 178 181 184 187 188 188 188 189 190 191 187 191 196 194 197 197 194 197 202 197 204 200 208 201 196 209 216 256 302 326 318 325 11 334 328 323 317 322 309
176 176 177 178 179 181 184 185 187 186 182 183 187 188 189 191 195 197 194 197 197 193 193 198 207 206 212 214 215 222 233 243 273 298 301 310 308 298 327 305 314 315 314
174 178 179 181 181 183 184 184 186 184 181 181 188 193 193 192 194 192 192 196 198 198 200 200 206 212 212 216 219 227 237 241 249 268 284 294 299 306 307 299 305 305 299
175 181 182 181 182 184 186 185 185 184 184 185 192 195 195 192 192 187 191 191 194 206 207 206 207 212 218 223 238 236 243 245 245 248 254 282 330 341 323 314 308 299 292
180 181 185 185 187 187 188 185 185 185 187 192 195 191 193 190 193 193 193 190 193 205 203 210 211 213 212 177 250 268 251 251 251 255 255 231 226 233 248 281 301 307 300
188 188 189 190 191 190 187 185 186 183 188 193 192 187 190 193 198 194 193 195 198 201 207 213 215 219 202 191 216 246 260 256 262 266 262 260 254 251 252 232 229 240 253
195 194 195 192 191 187 182 179 176 181 187 190 190 188 190 193 195 196 198 205 205 199 207 213 216 221 210 198 216 233 246 250 252 257 264 261 259 269 284 276 270 271 263
197 194 195 187 184 181 177 174 175 179 185 189 192 189 191 191 192 195 200 204 205 204 208 212 215 218 211 197 213 234 243 248 253 255 262 268 265 266 279 273 273 272 267
157 160 163 168 169 168 169 172 174 179 187 191 192 188 189 190 193 197 198 197 203 210 212 214 221 225 230 189 210 239 247 252 256 257 254 248 270 273 267 269 273 276 281
124 137 143 144 151 156 163 173 175 184 187 184 184 182 183 189 193 194 192 193 197 206 213 215 223 232 239 199 206 233 256 260 263 262 261 250 223 256 263 270 275 286 293
119 130 133 127 131 150 163 169 175 178 169 169 174 178 177 176 181 185 190 193 194 203 212 220 222 229 226 226 208 224 249 276 272 272 272 271 230 253 262 263 273 279 277
126 132 133 127 127 145 165 168 165 161 159 162 169 173 170 171 177 182 185 188 194 209 216 219 228 231 235 211 205 224 239 253 264 276 290 288 270 260 254 248 258 263 263
137 140 142 136 129 138 157 168 151 157 161 162 165 167 167 165 169 178 188 191 195 210 220 225 235 242 239 250 247 246 242 239 249 262 261 249 252 255 267 266 251 254 265
148 150 149 142 139 139 144 149 150 161 167 163 161 164 161 160 165 166 185 205 197 230 239 239 246 256 259 291 310 284 271 272 279 284 271 268 266 265 264 265 267 268 266
150 148 144 147 147 144 139 140 150 163 168 164 159 161 160 163 169 168 160 78 5 112 244 304 296 277 309 330 291 281 284 281 273 270 268 271 273 276 279 280 278 274 274